map of CUN home
Great Circle Mapper logo
CUN - Airport
Location
City:  Cancún, Quintana Roo, México
Name:Cancún International Airport
ICAO / IATA:MMUN / CUN

Details
Type:Airport (Aerodrome, Airfield)
Use:Public/Civil, International (customs port of entry)
Latitude:21°02'12"N (21.036528)
Longitude:86°52'37"W (-86.877082)
Datum:WGS 1984
Elevation:20 ft (6 m)
Runways:1
Longest:11483 × 197 ft (3500 × 60 m), paved

Time
Time Zone:UTC-6 (DST-5)
Local Time:

Weather
METAR:MMUN 252247Z 33004KT 7SM SCT025 SCT080 BKN250 26/20 A2996 RMK 8/578 DSNT TCU W
TAF:MMUN 252258Z 2600/2706 01007KT P6SM SCT025 SCT250 TX28/2618Z TN20/2610Z
TEMPO 2610/2614 BKN020 BKN250
FM261600 03010KT P6SM BKN015 BKN250
FM270100 04005KT P6SM SCT015 SCT250

Related Locations
Nearby:
Farthest:CCK: 11776 mi / 18952 km
West Island (Pulau Panjang) [Cocos (Keeling) Islands], CC

Find:

   beyond  
but within

Other Information
Maps:
NOTAMs:
Links:
Sources:

  
flag of México   

Sectional Chart

Flight Planning
at skyvector.com

Satellite Image

Google Maps Satellite View

 

Copyright © 2004-2014 Karl L. Swartz. All rights reserved.
The Great Circle Mapper name and logo are trademarks of the Great Circle Mapper.
All other trademarks mentioned herein belong to their respective owners.
Please see credits for attibutions and further copyright information.

  Follow gcmap on Facebook Follow gcmap on Twitter

hCard Microformat

Geo Microformat